Home   Weather   Fayetteville   Past weeks

Flag for USA Past Weather in Fayetteville, North Carolina, USA — Yesterday and Last 2 Weeks

Now
54 °F

Fog.


Feels Like: 54 °F
Forecast: 55 / 69 °F
Wind: No wind

Location: Fayetteville Regional Airport

Current Time: Jan 21, 2017 at 1:47:39 am

Latest Report: Jan 21, 2017 at 12:53 am


Visibility: 0 mi

Pressure: 29.88 "Hg

Humidity: 97%

Dew Point: 53 °F

Location of FayettevilleLocation

Past Weather in Fayetteville — Graph

°F

Fayetteville Temperature Yesterday

Maximum temperature yesterday: 72 °F (at 2:53 pm)
Minimum temperature yesterday: 46 °F (at 3:53 am)
Average temperature yesterday: 58 °F

High & Low Weather Summary for the Past Weeks

 TemperatureHumidityPressure
High79 °F (Jan 13, 2:53 pm)100% (Jan 11, 5:53 am)30.82 "Hg (Jan 11, 5:53 am)
Low14 °F (Jan 9, 6:53 am)24% (Jan 18, 3:53 pm)29.80 "Hg (Jan 20, 2:53 pm)
Average47 °F75%30.26 "Hg
* Reported Jan 6 12:53 am — Jan 21 12:33 am, Fayetteville, Weather by CustomWeather, © 2017

Note: Actual official high and low records may vary slightly from our data, if they occured in-between our weather recording intervals... More about our weather records

Advertising

Fayetteville Weather History for the Previous 24 Hours

Scroll right to see more
 ConditionsComfort  
Time TempWeatherWind HumidityBarometerVisibility
12:33 am
Sat, Jan 21
54 °FFog.No wind100%29.89 "Hg1 mi
12:17 am54 °FFog.3 mph100%29.90 "Hg2 mi
12:05 am53 °FFog.5 mph100%29.90 "Hg1 mi
11:53 pm
Fri, Jan 20
53 °FFog.3 mph100%29.89 "Hg1 mi
11:36 pm54 °FFog.5 mph97%29.91 "Hg2 mi
10:59 pm57 °FFog.3 mph96%29.91 "Hg2 mi
10:24 pm57 °FFog.3 mph96%29.91 "Hg1 mi
10:03 pm57 °FFog.3 mph96%29.90 "Hg0 mi
9:53 pm57 °FFog.3 mph96%29.88 "Hg1 mi
8:53 pm58 °FClear.6 mph97%29.88 "Hg8 mi
7:53 pm60 °FClear.No wind90%29.87 "Hg10 mi
6:53 pm62 °FClear.No wind86%29.84 "Hg10 mi
5:53 pm66 °FClear.No wind78%29.82 "Hg10 mi
4:53 pm70 °FScattered clouds.3 mph68%29.81 "Hg10 mi
3:53 pm71 °FMostly cloudy.8 mph66%29.81 "Hg10 mi
2:53 pm72 °FScattered clouds.10 mph61%29.80 "Hg10 mi
1:53 pm71 °FPartly sunny.13 mph63%29.81 "Hg10 mi
12:53 pm71 °FPartly sunny.14 mph61%29.82 "Hg10 mi
11:53 am68 °FScattered clouds.8 mph63%29.85 "Hg10 mi
11:25 am64 °FMostly cloudy.9 mph70%29.88 "Hg10 mi
10:53 am60 °FCloudy.8 mph75%29.88 "Hg10 mi
10:20 am57 °FCloudy.7 mph81%29.91 "Hg10 mi
9:53 am56 °FOvercast.6 mph81%29.90 "Hg10 mi
9:18 am53 °FOvercast.7 mph86%29.91 "Hg10 mi
8:53 am52 °FOvercast.6 mph86%29.89 "Hg10 mi
7:53 am50 °FMostly cloudy.3 mph89%29.90 "Hg10 mi
6:53 am49 °FPassing clouds.6 mph86%29.89 "Hg10 mi
5:53 am48 °FClear.No wind89%29.89 "Hg9 mi
4:53 am47 °FPassing clouds.3 mph90%29.90 "Hg9 mi
3:53 am46 °FPassing clouds.No wind93%29.91 "Hg10 mi
2:53 am47 °FClear.No wind90%29.94 "Hg10 mi
1:53 am47 °FClear.3 mph90%29.95 "Hg10 mi
Weather by CustomWeather, © 2017

See weather overviewHow to use our weather pages